This demonstration page uses our WeatherBlox Daily Observations layout. Learn more.

Left ArrowRight Arrow

Hourly Observations for February 7, 2020

Temp ( °F °C ) Dew Point ( °F °C ) Humidity (%) Winds ( mph kmh ) Pressure ( in mb ) Visibility ( mi km ) Precip ( " mm )
12:59 am 00:59 Cloudy with Light Rain 61 16.1 60 15.6 97 97 SSE 8 13 29.42 996 7 11 0.14 3.56
1:28 am 01:28 Cloudy with Rain 61 16.1 60 15.6 97 97 SSE 9 15 29.40 996 4 6 0.00 0.00
1:59 am 01:59 Cloudy with Light Rain 61 16.1 60 15.6 97 97 SSE 7 11 29.35 994 4 6 0.27 6.86
2:50 am 02:50 Cloudy with Light Rain 61 16.1 60 15.6 97 97 SSE 9 15 29.33 993 5 8 0.00 0.00
2:59 am 02:59 Cloudy with Light Rain 62 16.7 60 15.6 93 93 SSE 9 15 29.32 993 5 8 0.23 5.84
3:59 am 03:59 Cloudy with Light Rain 62 16.7 60 15.6 93 93 SE 10 17 29.23 990 5 8 0.12 3.05
4:59 am 04:59 Cloudy 61 16.1 59 15 93 93 SSE 17 28 29.16 988 7 11 0.02 0.51
5:59 am 05:59 Cloudy 61 16.1 59 15 93 93 S 12 19 29.17 988 10 16 0.00 0.00
6:59 am 06:59 Mostly Cloudy 61 16.1 59 15 93 93 SSW 15 24 29.16 988 10 16 0.00 0.00
7:59 am 07:59 Mostly Cloudy 64 17.8 56 13.3 75 75 SW 21 33 29.18 988 10 16 0.00 0.00
8:25 am 08:25 Partly Cloudy 64 17.8 55 12.8 73 73 SW 21 33 29.19 988 10 16 0.00 0.00
8:59 am 08:59 Mostly Cloudy 65 18.3 55 12.8 70 70 SSW 20 31 29.18 988 10 16 0.00 0.00
9:19 am 09:19 Cloudy with Rain 62 16.7 53 11.7 73 73 WSW 32 52 29.22 989 3 4 0.00 0.00
9:22 am 09:22 Cloudy with Light Rain 59 15 51 10.6 75 75 WSW 28 44 29.22 989 4 6 0.00 0.00
9:59 am 09:59 Partly Cloudy 62 16.7 47 8.3 58 58 WSW 26 43 29.24 990 10 16 0.02 0.51
10:59 am 10:59 Partly Cloudy 61 16.1 41 5 48 48 WSW 26 43 29.30 992 10 16 0.00 0.00
11:59 am 11:59 Partly Cloudy 58 14.4 42 5.6 56 56 WSW 24 39 29.35 994 10 16 0.00 0.00
12:59 pm 12:59 Cloudy 57 13.9 41 5 55 55 W 24 39 29.37 995 10 16 0.00 0.00
1:59 pm 13:59 Mostly Cloudy 57 13.9 38 3.3 49 49 W 16 26 29.42 996 10 16 0.00 0.00
2:59 pm 14:59 Partly Cloudy 58 14.4 34 1.1 41 41 W 24 39 29.46 998 10 16 0.00 0.00
3:59 pm 15:59 Mostly Cloudy 56 13.3 34 1.1 44 44 W 28 44 29.53 1000 10 16 0.00 0.00
4:59 pm 16:59 Mostly Cloudy 52 11.1 30 -1.1 43 43 W 26 43 29.60 1003 10 16 0.00 0.00
5:59 pm 17:59 Mostly Clear 49 9.4 29 -1.7 46 46 W 24 39 29.68 1005 10 16 0.00 0.00
6:59 pm 18:59 Mostly Clear 46 7.8 26 -3.3 46 46 WNW 30 48 29.75 1007 10 16 0.00 0.00
7:59 pm 19:59 Mostly Clear 45 7.2 21 -6.1 39 39 W 25 41 29.83 1010 10 16 0.00 0.00
8:59 pm 20:59 Mostly Clear 44 6.7 20 -6.7 38 38 W 20 31 29.89 1012 10 16 0.00 0.00
9:59 pm 21:59 Mostly Clear 42 5.6 21 -6.1 43 43 WNW 22 35 29.94 1014 10 16 0.00 0.00
10:59 pm 22:59 Clear 42 5.6 21 -6.1 43 43 W 17 28 29.98 1015 10 16 0.00 0.00
11:59 pm 23:59 Mostly Clear 41 5 21 -6.1 45 45 W 17 28 30.02 1017 10 16 0.00 0.00

Powered by AerisWeather